User: anonymous   Login
Location: Unspecified
(0.0000°N, 0.0000°E)
Time: 01:30:43
(UTC+00:00)
Language:

SINAH 1 - Orbit

View from above orbital plane
View from above orbital plane
View from above satellite
View from above satellite

Ground track
Ground track

The orbit data is extracted from the following two-line orbital elements,

1 28893U 05043D   17117.90047476 +.00000032 +00000-0 +15357-4 0  9996
2 28893 097.8685 278.4355 0014137 315.3002 044.7060 14.61429710612857
Epoch (UTC): 27 April 2017 21:36:41
Eccentricity: 0.0014137
inclination: 97.8685°
perigee height: 678 km
apogee height: 698 km
right ascension of ascending node: 278.4355°
argument of perigee: 315.3002°
revolutions per day: 14.61429710
mean anomaly at epoch: 44.7060°
orbit number at epoch: 61285

The dashed part of the orbit path shows where the satellite is in the earth's shadow,  

DLR